Location: Newark
(46.1292°N, 1.0086°W)
Time: 01:02:39
(UTC+00:00)

ISS - Visible Passes

Search period start: 17 October 2019 00:00
Search period end: 27 October 2019 00:00
Orbit: 411 x 421 km, 51.6° (Epoch: 16 October)

Date Brightness Start Highest point End Pass type
(mag) Time Alt. Az. Time Alt. Az. Time Alt. Az.
23 Oct -0.7 05:36:31 10° SSE 05:38:17 14° SE 05:40:02 10° ESE visible
25 Oct -2.0 05:34:30 10° SSW 05:37:32 32° SE 05:40:34 10° ENE visible
26 Oct -1.3 04:46:49 11° S 04:49:07 20° SE 04:51:40 10° E visible
